Regional Weather Roundup
Issued by NWS

Home | Current Version | Previous Version | Text Only | Print | Product List | Glossary On
Versions: 1 2 3 4 5 6 7 8 9 10 11 12 13 14 15 16 17 18 19 20 21 22 23 24 25 26 27 28 29 30 31 32 33 34 35 36 37 38 39 40 41 42 43 44 45 46 47 48 49 50
000
ASPQ40 PGUM 290212
RWRPQ
WEATHER ROUNDUP FOR THE MARIANAS AND MICRONESIA
NATIONAL WEATHER SERVICE TIYAN GU
1200 PM CHST SAT NOV 29 2014

GUZ001>004-290300-
MARIANA ISLANDS-

CITY           SKY/WX    TMP DP  RH WIND       PRES   REMARKS
GUAM AIRPORT   MOSUNNY   88  73  62 E14G23    29.87F HX  96
ANDERSEN AFB   SUNNY     84  73  70 E18       29.87F HX  91
ROTA AIRPORT   MOSUNNY   82  75  78 E18G24    29.88F
TINIAN AP      MOSUNNY   84  77  79 E18G26    29.85F HX  94
SAIPAN AP      MOSUNNY   86  75  70 NE22      29.87F HX  95

$$

PMZ161-290300-
REPUBLIC OF PALAU-

CITY           SKY/WX    TMP DP  RH WIND       PRES   REMARKS
KOROR AP       CLOUDY    86  81  84 E9G21     29.80S HX 102
KOROR WSO      CLOUDY    86  77  74 E15       29.79F HX  97

$$

PMZ171>174-290300-
FEDERATED STATES OF MICRONESIA-

CITY           SKY/WX    TMP DP  RH WIND       PRES   REMARKS
YAP AIRPORT    CLOUDY    88  79  74 E10       29.81F HX 102
CHUUK AP       CLOUDY    86  79  79 NE12      29.72F HX  99
POHNPEI AP     CLOUDY    88  77  70 E12       29.69F HX 100
POHNPEI WSO    CLOUDY    88  79  74 E7        29.72F HX 102
KOSRAE AP      NOT AVBL

$$

PMZ181-290300-
REPUBLIC OF THE MARSHALL ISLANDS-

CITY           SKY/WX    TMP DP  RH WIND       PRES   REMARKS
KWAJALEIN AP   MOSUNNY   88  77  70 NE26      29.70F HX 100
MAJURO AP      NOT AVBL
MAJURO WSO     LGT RAIN  77  75  94 E12       29.67F

$$



USA.gov is the U.S. government's official web portal to all federal, state and local government web resources and services.